Time,TemperatureF,DewpointF,PressureIn,WindDirection,WindDirectionDegrees,WindSpeedMPH,WindSpeedGustMPH,Humidity,HourlyPrecipIn,Conditions,Clouds,dailyrainin,SoftwareType,DateUTC
2013-03-14 00:02:00,36.0,21.0,30.32,North,-999,-999.0,-999.0,54,-99.99,,,-99.99,,2013-03-14 05:02:00,
2013-03-14 00:12:00,38.0,20.0,30.32,North,-999,-999.0,-999.0,47,-99.99,,,-99.99,,2013-03-14 05:12:00,
2013-03-14 00:22:00,38.0,20.0,30.32,North,-999,-999.0,-999.0,47,-99.99,,,-99.99,,2013-03-14 05:22:00,
2013-03-14 00:33:00,39.0,19.0,30.32,North,-999,-999.0,-999.0,45,-99.99,,,-99.99,,2013-03-14 05:33:00,
2013-03-14 00:42:00,39.0,19.0,30.31,North,-999,-999.0,-999.0,43,-99.99,,,-99.99,,2013-03-14 05:42:00,
2013-03-14 00:52:00,39.0,19.0,30.31,North,-999,-999.0,-999.0,43,-99.99,,,-99.99,,2013-03-14 05:52:00,
2013-03-14 01:02:00,39.0,18.0,30.32,North,-999,-999.0,-999.0,43,-99.99,,,-99.99,,2013-03-14 06:02:00,
2013-03-14 01:12:00,39.0,18.0,30.31,North,-999,-999.0,-999.0,43,-99.99,,,-99.99,,2013-03-14 06:12:00,
2013-03-14 01:22:00,39.0,18.0,30.31,North,-999,-999.0,-999.0,43,-99.99,,,-99.99,,2013-03-14 06:22:00,
2013-03-14 01:32:00,39.0,18.0,30.31,North,-999,-999.0,-999.0,43,-99.99,,,-99.99,,2013-03-14 06:32:00,
2013-03-14 01:42:00,38.0,18.0,30.30,North,-999,-999.0,-999.0,44,-99.99,,,-99.99,,2013-03-14 06:42:00,
2013-03-14 01:52:00,38.0,18.0,30.30,North,-999,-999.0,-999.0,44,-99.99,,,-99.99,,2013-03-14 06:52:00,
2013-03-14 02:02:00,38.0,19.0,30.29,North,-999,-999.0,-999.0,45,-99.99,,,-99.99,,2013-03-14 07:02:00,
2013-03-14 02:12:00,38.0,18.0,30.29,North,-999,-999.0,-999.0,45,-99.99,,,-99.99,,2013-03-14 07:12:00,
2013-03-14 02:22:00,38.0,18.0,30.29,North,-999,-999.0,-999.0,45,-99.99,,,-99.99,,2013-03-14 07:22:00,
2013-03-14 02:30:00,36.0,19.0,30.27,North,-999,-999.0,-999.0,49,-99.99,,,-99.99,,2013-03-14 07:30:00,
2013-03-14 02:32:00,37.0,19.0,30.28,North,-999,-999.0,-999.0,47,-99.99,,,-99.99,,2013-03-14 07:32:00,
2013-03-14 02:42:00,36.0,19.0,30.28,North,-999,-999.0,-999.0,48,-99.99,,,-99.99,,2013-03-14 07:42:00,
2013-03-14 02:52:00,36.0,19.0,30.28,North,-999,-999.0,-999.0,48,-99.99,,,-99.99,,2013-03-14 07:52:00,
2013-03-14 03:02:00,36.0,19.0,30.27,North,-999,-999.0,-999.0,49,-99.99,,,-99.99,,2013-03-14 08:02:00,
2013-03-14 03:12:00,36.0,19.0,30.27,North,-999,-999.0,-999.0,49,-99.99,,,-99.99,,2013-03-14 08:12:00,
2013-03-14 03:22:00,36.0,19.0,30.27,North,-999,-999.0,-999.0,49,-99.99,,,-99.99,,2013-03-14 08:22:00,
2013-03-14 03:42:00,37.0,19.0,30.27,North,-999,-999.0,-999.0,48,-99.99,,,-99.99,,2013-03-14 08:42:00,
2013-03-14 03:52:00,37.0,19.0,30.27,North,-999,-999.0,-999.0,48,-99.99,,,-99.99,,2013-03-14 08:52:00,
2013-03-14 04:01:00,37.0,19.0,30.26,North,-999,-999.0,-999.0,48,-99.99,,,-99.99,,2013-03-14 09:01:00,
2013-03-14 04:12:00,37.0,19.0,30.25,North,-999,-999.0,-999.0,48,-99.99,,,-99.99,,2013-03-14 09:12:00,
2013-03-14 04:22:00,37.0,19.0,30.25,North,-999,-999.0,-999.0,48,-99.99,,,-99.99,,2013-03-14 09:22:00,
2013-03-14 04:32:00,37.0,20.0,30.25,North,-999,-999.0,-999.0,49,-99.99,,,-99.99,,2013-03-14 09:32:00,
2013-03-14 04:42:00,36.0,19.0,30.25,North,-999,-999.0,-999.0,50,-99.99,,,-99.99,,2013-03-14 09:42:00,
2013-03-14 04:52:00,36.0,19.0,30.25,North,-999,-999.0,-999.0,50,-99.99,,,-99.99,,2013-03-14 09:52:00,
2013-03-14 05:02:00,36.0,20.0,30.24,North,-999,-999.0,-999.0,51,-99.99,,,-99.99,,2013-03-14 10:02:00,
2013-03-14 05:12:00,36.0,20.0,30.23,North,-999,-999.0,-999.0,51,-99.99,,,-99.99,,2013-03-14 10:12:00,
2013-03-14 05:22:00,36.0,20.0,30.23,North,-999,-999.0,-999.0,51,-99.99,,,-99.99,,2013-03-14 10:22:00,
2013-03-14 05:32:00,37.0,20.0,30.24,North,-999,-999.0,-999.0,51,-99.99,,,-99.99,,2013-03-14 10:32:00,
2013-03-14 05:42:00,37.0,20.0,30.24,North,-999,-999.0,-999.0,50,-99.99,,,-99.99,,2013-03-14 10:42:00,
2013-03-14 05:52:00,37.0,20.0,30.24,North,-999,-999.0,-999.0,50,-99.99,,,-99.99,,2013-03-14 10:52:00,
2013-03-14 06:02:00,36.0,20.0,30.24,North,-999,-999.0,-999.0,52,-99.99,,,-99.99,,2013-03-14 11:02:00,
2013-03-14 06:12:00,36.0,21.0,30.23,North,-999,-999.0,-999.0,52,-99.99,,,-99.99,,2013-03-14 11:12:00,
2013-03-14 06:22:00,36.0,21.0,30.23,North,-999,-999.0,-999.0,52,-99.99,,,-99.99,,2013-03-14 11:22:00,
2013-03-14 06:33:00,36.0,20.0,30.22,North,-999,-999.0,-999.0,52,-99.99,,,-99.99,,2013-03-14 11:33:00,
2013-03-14 06:42:00,36.0,20.0,30.22,North,-999,-999.0,-999.0,51,-99.99,,,-99.99,,2013-03-14 11:42:00,
2013-03-14 06:52:00,36.0,20.0,30.22,North,-999,-999.0,-999.0,51,-99.99,,,-99.99,,2013-03-14 11:52:00,
2013-03-14 07:02:00,37.0,20.0,30.23,North,-999,-999.0,-999.0,50,-99.99,,,-99.99,,2013-03-14 12:02:00,
2013-03-14 07:12:00,37.0,20.0,30.23,North,-999,-999.0,-999.0,50,-99.99,,,-99.99,,2013-03-14 12:12:00,
2013-03-14 07:22:00,37.0,20.0,30.23,North,-999,-999.0,-999.0,50,-99.99,,,-99.99,,2013-03-14 12:22:00,
2013-03-14 07:33:00,37.0,20.0,30.22,North,-999,-999.0,-999.0,50,-99.99,,,-99.99,,2013-03-14 12:33:00,
2013-03-14 07:42:00,37.0,20.0,30.22,North,-999,-999.0,-999.0,50,-99.99,,,-99.99,,2013-03-14 12:42:00,
2013-03-14 07:52:00,37.0,20.0,30.22,North,-999,-999.0,-999.0,50,-99.99,,,-99.99,,2013-03-14 12:52:00,
2013-03-14 08:02:00,37.0,20.0,30.22,North,-999,-999.0,-999.0,49,-99.99,,,-99.99,,2013-03-14 13:02:00,
2013-03-14 08:12:00,37.0,20.0,30.22,North,-999,-999.0,-999.0,49,-99.99,,,-99.99,,2013-03-14 13:12:00,
2013-03-14 08:22:00,37.0,20.0,30.22,North,-999,-999.0,-999.0,49,-99.99,,,-99.99,,2013-03-14 13:22:00,
2013-03-14 08:32:00,37.0,20.0,30.22,North,-999,-999.0,-999.0,48,-99.99,,,-99.99,,2013-03-14 13:32:00,
2013-03-14 08:42:00,37.0,20.0,30.22,North,-999,-999.0,-999.0,48,-99.99,,,-99.99,,2013-03-14 13:42:00,
2013-03-14 08:52:00,37.0,20.0,30.22,North,-999,-999.0,-999.0,48,-99.99,,,-99.99,,2013-03-14 13:52:00,
2013-03-14 09:02:00,38.0,20.0,30.22,North,-999,-999.0,-999.0,49,-99.99,,,-99.99,,2013-03-14 14:02:00,
2013-03-14 09:12:00,39.0,21.0,30.22,North,-999,-999.0,-999.0,49,-99.99,,,-99.99,,2013-03-14 14:12:00,
2013-03-14 09:22:00,39.0,21.0,30.22,North,-999,-999.0,-999.0,49,-99.99,,,-99.99,,2013-03-14 14:22:00,
2013-03-14 09:32:00,42.0,22.0,30.21,North,-999,-999.0,-999.0,45,-99.99,,,-99.99,,2013-03-14 14:32:00,
2013-03-14 09:42:00,42.0,20.0,30.21,North,-999,-999.0,-999.0,42,-99.99,,,-99.99,,2013-03-14 14:42:00,
2013-03-14 09:50:00,47.0,23.0,30.20,North,-999,-999.0,-999.0,39,-99.99,,,-99.99,,2013-03-14 14:50:00,
2013-03-14 09:52:00,42.0,20.0,30.21,North,-999,-999.0,-999.0,42,-99.99,,,-99.99,,2013-03-14 14:52:00,
2013-03-14 10:02:00,42.0,22.0,30.21,North,-999,-999.0,-999.0,44,-99.99,,,-99.99,,2013-03-14 15:02:00,
2013-03-14 10:12:00,44.0,23.0,30.20,North,-999,-999.0,-999.0,43,-99.99,,,-99.99,,2013-03-14 15:12:00,
2013-03-14 10:22:00,47.0,23.0,30.20,North,-999,-999.0,-999.0,39,-99.99,,,-99.99,,2013-03-14 15:22:00,
2013-03-14 10:33:00,47.0,23.0,30.20,North,-999,-999.0,-999.0,39,-99.99,,,-99.99,,2013-03-14 15:33:00,
2013-03-14 10:43:00,47.0,23.0,30.20,North,-999,-999.0,-999.0,39,-99.99,,,-99.99,,2013-03-14 15:43:00,
2013-03-14 12:12:00,61.0,32.0,30.16,North,-999,-999.0,-999.0,33,-99.99,,,-99.99,,2013-03-14 17:12:00,
2013-03-14 12:23:00,61.0,32.0,30.16,North,-999,-999.0,-999.0,33,-99.99,,,-99.99,,2013-03-14 17:23:00,
2013-03-14 12:32:00,62.0,31.0,30.15,North,-999,-999.0,-999.0,32,-99.99,,,-99.99,,2013-03-14 17:32:00,
2013-03-14 12:42:00,63.0,33.0,30.15,North,-999,-999.0,-999.0,33,-99.99,,,-99.99,,2013-03-14 17:42:00,
2013-03-14 12:52:00,63.0,33.0,30.15,North,-999,-999.0,-999.0,33,-99.99,,,-99.99,,2013-03-14 17:52:00,
2013-03-14 13:03:00,63.0,33.0,30.13,North,-999,-999.0,-999.0,32,-99.99,,,-99.99,,2013-03-14 18:03:00,
2013-03-14 13:12:00,65.0,33.0,30.14,North,-999,-999.0,-999.0,30,-99.99,,,-99.99,,2013-03-14 18:12:00,
2013-03-14 13:23:00,65.0,34.0,30.13,North,-999,-999.0,-999.0,32,-99.99,,,-99.99,,2013-03-14 18:23:00,
2013-03-14 13:33:00,65.0,34.0,30.13,North,-999,-999.0,-999.0,32,-99.99,,,-99.99,,2013-03-14 18:33:00,
2013-03-14 13:43:00,65.0,34.0,30.13,North,-999,-999.0,-999.0,32,-99.99,,,-99.99,,2013-03-14 18:43:00,
2013-03-14 13:50:00,67.0,35.0,30.11,North,-999,-999.0,-999.0,30,-99.99,,,-99.99,,2013-03-14 18:50:00,
2013-03-14 13:52:00,66.0,36.0,30.13,North,-999,-999.0,-999.0,32,-99.99,,,-99.99,,2013-03-14 18:52:00,
2013-03-14 14:03:00,66.0,36.0,30.13,North,-999,-999.0,-999.0,32,-99.99,,,-99.99,,2013-03-14 19:03:00,
2013-03-14 14:12:00,67.0,34.0,30.12,North,-999,-999.0,-999.0,29,-99.99,,,-99.99,,2013-03-14 19:12:00,
2013-03-14 14:23:00,67.0,34.0,30.12,North,-999,-999.0,-999.0,29,-99.99,,,-99.99,,2013-03-14 19:23:00,
2013-03-14 14:32:00,67.0,35.0,30.11,North,-999,-999.0,-999.0,30,-99.99,,,-99.99,,2013-03-14 19:32:00,
2013-03-14 14:42:00,67.0,35.0,30.11,North,-999,-999.0,-999.0,30,-99.99,,,-99.99,,2013-03-14 19:42:00,
2013-03-14 15:32:00,71.0,36.0,30.08,North,-999,-999.0,-999.0,28,-99.99,,,-99.99,,2013-03-14 20:32:00,
2013-03-14 15:42:00,70.0,36.0,30.07,North,-999,-999.0,-999.0,28,-99.99,,,-99.99,,2013-03-14 20:42:00,
2013-03-14 15:52:00,70.0,36.0,30.07,North,-999,-999.0,-999.0,28,-99.99,,,-99.99,,2013-03-14 20:52:00,
2013-03-14 16:02:00,70.0,37.0,30.06,North,-999,-999.0,-999.0,30,-99.99,,,-99.99,,2013-03-14 21:02:00,
2013-03-14 16:12:00,69.0,37.0,30.05,North,-999,-999.0,-999.0,31,-99.99,,,-99.99,,2013-03-14 21:12:00,
2013-03-14 16:22:00,69.0,37.0,30.05,North,-999,-999.0,-999.0,31,-99.99,,,-99.99,,2013-03-14 21:22:00,
2013-03-14 16:32:00,68.0,36.0,30.05,North,-999,-999.0,-999.0,31,-99.99,,,-99.99,,2013-03-14 21:32:00,
2013-03-14 16:43:00,68.0,37.0,30.06,North,-999,-999.0,-999.0,32,-99.99,,,-99.99,,2013-03-14 21:43:00,
2013-03-14 16:53:00,68.0,37.0,30.06,North,-999,-999.0,-999.0,32,-99.99,,,-99.99,,2013-03-14 21:53:00,
2013-03-14 17:00:00,71.0,36.0,30.06,North,-999,-999.0,-999.0,28,-99.99,,,-99.99,,2013-03-14 22:00:00,
2013-03-14 17:03:00,71.0,36.0,30.06,North,-999,-999.0,-999.0,28,-99.99,,,-99.99,,2013-03-14 22:03:00,
2013-03-14 17:13:00,72.0,37.0,30.07,North,-999,-999.0,-999.0,28,-99.99,,,-99.99,,2013-03-14 22:13:00,
2013-03-14 17:23:00,72.0,37.0,30.07,North,-999,-999.0,-999.0,28,-99.99,,,-99.99,,2013-03-14 22:23:00,
2013-03-14 17:33:00,71.0,38.0,30.07,North,-999,-999.0,-999.0,29,-99.99,,,-99.99,,2013-03-14 22:33:00,
2013-03-14 17:42:00,71.0,36.0,30.06,North,-999,-999.0,-999.0,28,-99.99,,,-99.99,,2013-03-14 22:42:00,
2013-03-14 17:52:00,71.0,36.0,30.06,North,-999,-999.0,-999.0,28,-99.99,,,-99.99,,2013-03-14 22:52:00,
2013-03-14 18:00:00,71.0,37.0,30.06,North,-999,-999.0,-999.0,29,-99.99,,,-99.99,,2013-03-14 23:00:00,
2013-03-14 18:12:00,71.0,36.0,30.06,North,-999,-999.0,-999.0,28,-99.99,,,-99.99,,2013-03-14 23:12:00,
2013-03-14 18:22:00,71.0,36.0,30.06,North,-999,-999.0,-999.0,28,-99.99,,,-99.99,,2013-03-14 23:22:00,
2013-03-14 18:33:00,71.0,38.0,30.06,North,-999,-999.0,-999.0,30,-99.99,,,-99.99,,2013-03-14 23:33:00,
2013-03-14 18:42:00,71.0,37.0,30.06,North,-999,-999.0,-999.0,29,-99.99,,,-99.99,,2013-03-14 23:42:00,
2013-03-14 18:53:00,71.0,37.0,30.06,North,-999,-999.0,-999.0,29,-99.99,,,-99.99,,2013-03-14 23:53:00,
2013-03-14 19:12:00,69.0,38.0,30.06,North,-999,-999.0,-999.0,32,-99.99,,,-99.99,,2013-03-15 00:12:00,
2013-03-14 19:23:00,69.0,38.0,30.06,North,-999,-999.0,-999.0,32,-99.99,,,-99.99,,2013-03-15 00:23:00,
2013-03-14 19:32:00,68.0,38.0,30.07,North,-999,-999.0,-999.0,33,-99.99,,,-99.99,,2013-03-15 00:32:00,
2013-03-14 19:42:00,66.0,38.0,30.07,North,-999,-999.0,-999.0,35,-99.99,,,-99.99,,2013-03-15 00:42:00,
2013-03-14 19:52:00,66.0,38.0,30.07,North,-999,-999.0,-999.0,35,-99.99,,,-99.99,,2013-03-15 00:52:00,
2013-03-14 20:02:00,65.0,38.0,30.07,North,-999,-999.0,-999.0,37,-99.99,,,-99.99,,2013-03-15 01:02:00,
2013-03-14 20:12:00,63.0,37.0,30.07,North,-999,-999.0,-999.0,38,-99.99,,,-99.99,,2013-03-15 01:12:00,
2013-03-14 20:22:00,63.0,37.0,30.07,North,-999,-999.0,-999.0,38,-99.99,,,-99.99,,2013-03-15 01:22:00,
2013-03-14 20:32:00,63.0,38.0,30.06,North,-999,-999.0,-999.0,39,-99.99,,,-99.99,,2013-03-15 01:32:00,
2013-03-14 20:42:00,63.0,37.0,30.06,North,-999,-999.0,-999.0,38,-99.99,,,-99.99,,2013-03-15 01:42:00,
2013-03-14 20:52:00,63.0,37.0,30.06,North,-999,-999.0,-999.0,38,-99.99,,,-99.99,,2013-03-15 01:52:00,
2013-03-14 21:02:00,63.0,37.0,30.06,North,-999,-999.0,-999.0,38,-99.99,,,-99.99,,2013-03-15 02:02:00,
2013-03-14 21:12:00,63.0,37.0,30.07,North,-999,-999.0,-999.0,39,-99.99,,,-99.99,,2013-03-15 02:12:00,
2013-03-14 21:22:00,63.0,37.0,30.07,North,-999,-999.0,-999.0,39,-99.99,,,-99.99,,2013-03-15 02:22:00,
2013-03-14 21:32:00,62.0,38.0,30.07,North,-999,-999.0,-999.0,40,-99.99,,,-99.99,,2013-03-15 02:32:00,
2013-03-14 21:42:00,62.0,38.0,30.08,North,-999,-999.0,-999.0,41,-99.99,,,-99.99,,2013-03-15 02:42:00,
2013-03-14 21:52:00,62.0,38.0,30.08,North,-999,-999.0,-999.0,41,-99.99,,,-99.99,,2013-03-15 02:52:00,
2013-03-14 22:02:00,61.0,37.0,30.08,North,-999,-999.0,-999.0,42,-99.99,,,-99.99,,2013-03-15 03:02:00,
2013-03-14 22:12:00,60.0,37.0,30.08,North,-999,-999.0,-999.0,43,-99.99,,,-99.99,,2013-03-15 03:12:00,
2013-03-14 22:22:00,60.0,37.0,30.08,North,-999,-999.0,-999.0,43,-99.99,,,-99.99,,2013-03-15 03:22:00,
2013-03-14 22:33:00,59.0,38.0,30.08,North,-999,-999.0,-999.0,46,-99.99,,,-99.99,,2013-03-15 03:33:00,
2013-03-14 22:43:00,59.0,38.0,30.09,North,-999,-999.0,-999.0,45,-99.99,,,-99.99,,2013-03-15 03:43:00,
2013-03-14 22:52:00,59.0,38.0,30.09,North,-999,-999.0,-999.0,45,-99.99,,,-99.99,,2013-03-15 03:52:00,
2013-03-14 23:03:00,58.0,38.0,30.08,North,-999,-999.0,-999.0,48,-99.99,,,-99.99,,2013-03-15 04:03:00,
2013-03-14 23:12:00,57.0,38.0,30.08,North,-999,-999.0,-999.0,49,-99.99,,,-99.99,,2013-03-15 04:12:00,
2013-03-14 23:23:00,57.0,38.0,30.08,North,-999,-999.0,-999.0,49,-99.99,,,-99.99,,2013-03-15 04:23:00,
2013-03-14 23:32:00,57.0,38.0,30.08,North,-999,-999.0,-999.0,49,-99.99,,,-99.99,,2013-03-15 04:32:00,
2013-03-14 23:43:00,57.0,38.0,30.08,North,-999,-999.0,-999.0,49,-99.99,,,-99.99,,2013-03-15 04:43:00,
2013-03-14 23:52:00,57.0,38.0,30.08,North,-999,-999.0,-999.0,49,-99.99,,,-99.99,,2013-03-15 04:52:00,